Location: Luxembourg
(49.6117°N, 6.1300°E)
Time: 10:41:10
(UTC+01:00)

ISS - Visible Passes

Search period start: 19 January 2018 00:00
Search period end: 29 January 2018 00:00
Orbit: 402 x 407 km, 51.6° (Epoch: 19 January)

Date Brightness Start Highest point End Pass type
(mag) Time Alt. Az. Time Alt. Az. Time Alt. Az.
25 Jan -1.1 19:45:43 10° SSW 19:46:10 13° SSW 19:46:10 13° SSW visible
26 Jan -1.8 18:54:12 10° S 18:56:16 16° SE 18:56:16 16° SE visible
27 Jan -2.4 19:36:52 10° SW 19:38:56 32° SSW 19:38:56 32° SSW visible
28 Jan -2.7 18:44:50 10° SSW 18:47:44 29° SE 18:48:52 23° ESE visible
28 Jan -0.8 20:20:44 10° WSW 20:21:31 16° W 20:21:31 16° W visible
